Wheeler Army Airfield, HI

4:49 AM HST on September 27, 2016 (GMT -1000)
Wheeler Army Air Field

Weather History for PHHI - April, 2013

Change the Weather History Date:

Tuesday, April 9, 2013

  Actual Average Record
Temperature  
Mean Temperature 71 °F -  
Max Temperature 79 °F 75 °F 82 °F (2002)
Min Temperature 63 °F 62 °F 60 °F (1997)
Cooling Degree Days 6    
Growing Degree Days 21 (Base 50)    
Moisture  
Dew Point 62 °F    
Average Humidity 72    
Maximum Humidity 89    
Minimum Humidity 54    
Precipitation  
Precipitation 0.00 in - - ()
Sea Level Pressure  
Sea Level Pressure 30.01 in    
Wind  
Wind Speed 5 mph (ENE)    
Max Wind Speed 14 mph    
Max Gust Speed 21 mph    
Visibility 10 miles    
Events Rain    
Averages and records for this station are not official NWS values.
T = Trace of Precipitation, MM = Missing Value Source: NWS Daily Summary

Daily Weather History Graph

Daily Weather History Graph

Search for Another Location

Airport or City:

Trip Planner

Search our weather history database for the weather conditions in past years. The results will help you decide how hot, cold, wet, or windy it might be!

Date:

Astronomy

Apr. 09, 2013 Rise Set
Actual Time 6:17 AM HST 6:49 PM HST
Civil Twilight 5:55 AM HST 7:12 PM HST
Nautical Twilight 5:28 AM HST 7:38 PM HST
Astronomical Twilight 5:02 AM HST 8:05 PM HST
Moon 5:44 AM HST (4/9) 6:34 PM HST (4/9)
Length of Visible Light 13h 17m
Length of Day
12h 32m
Waning Crescent, 0% of the Moon is Illuminated
Apr 9
Waning Crescent
Apr 9
New
Apr 18
First Quarter
Apr 25
Full
May 2
Last Quarter

Hourly Weather History & Observations

Time (HST) Temp. Dew Point Humidity Pressure Visibility Wind Dir Wind Speed Gust Speed Precip Events Conditions
12:55 AM 68.2 °F 61.7 °F 80% 30.04 in 10.0 mi Calm Calm - N/A   Mostly Cloudy
1:26 AM 68.0 °F 62.6 °F 83% 30.03 in 10.0 mi NNE 8.1 mph - N/A Rain Light Rain
1:37 AM 68.0 °F 62.6 °F 83% 30.03 in 10.0 mi NE 8.1 mph - N/A   Mostly Cloudy
1:47 AM 68.0 °F 62.6 °F 83% 30.02 in 10.0 mi ENE 6.9 mph - N/A   Light Drizzle
1:55 AM 68.2 °F 63.0 °F 83% 30.02 in 10.0 mi ENE 6.9 mph - 0.00 in   Light Drizzle
1:56 AM 68.0 °F 62.6 °F 83% 30.02 in 10.0 mi ENE 6.9 mph - N/A   Mostly Cloudy
2:55 AM 65.1 °F 61.9 °F 89% 30.00 in 10.0 mi WNW 3.5 mph - N/A   Overcast
3:55 AM 67.1 °F 62.8 °F 86% 29.97 in 10.0 mi Calm Calm - N/A   Scattered Clouds
5:55 AM 64.9 °F 61.5 °F 89% 29.98 in 10.0 mi Calm Calm - N/A   Clear
6:55 AM 63.0 °F 59.4 °F 88% 30.01 in 10.0 mi West 5.8 mph - N/A   Clear
7:55 AM 70.2 °F 63.1 °F 78% 30.02 in 10.0 mi Calm Calm - N/A   Clear
8:55 AM 74.3 °F 62.8 °F 67% 30.03 in 10.0 mi East 6.9 mph - N/A   Clear
9:55 AM 77.2 °F 62.1 °F 59% 30.04 in 10.0 mi East 9.2 mph - N/A   Partly Cloudy
10:55 AM 78.3 °F 61.9 °F 57% 30.03 in 10.0 mi East 11.5 mph - N/A   Scattered Clouds
11:55 AM 78.4 °F 62.2 °F 57% 30.02 in 10.0 mi East 13.8 mph 20.7 mph N/A   Partly Cloudy
12:55 PM 79.2 °F 61.2 °F 54% 29.99 in 10.0 mi ESE 10.4 mph - N/A   Mostly Cloudy
1:55 PM 76.3 °F 64.0 °F 66% 29.99 in 10.0 mi SSE 6.9 mph - N/A   Overcast
2:29 PM 78.8 °F 64.4 °F 61% 29.97 in 10.0 mi SSW 6.9 mph - N/A   Light Drizzle
2:39 PM 78.8 °F 64.4 °F 61% 29.97 in 10.0 mi Variable 5.8 mph - N/A   Mostly Cloudy
2:55 PM 77.9 °F 61.3 °F 57% 29.96 in 10.0 mi East 9.2 mph - 0.00 in   Mostly Cloudy
3:55 PM 77.7 °F 61.3 °F 57% 29.95 in 10.0 mi ENE 13.8 mph - N/A   Clear
4:55 PM 77.4 °F 59.5 °F 54% 29.96 in 10.0 mi East 13.8 mph - N/A   Clear
5:55 PM 75.0 °F 61.2 °F 62% 29.98 in 10.0 mi East 11.5 mph - N/A   Clear
6:55 PM 72.3 °F 61.0 °F 67% 30.00 in 10.0 mi East 8.1 mph - N/A   Clear
7:55 PM 69.6 °F 60.8 °F 73% 30.03 in 10.0 mi West 4.6 mph - N/A   Clear
8:55 PM 70.2 °F 61.2 °F 73% 30.04 in 10.0 mi Calm Calm - N/A   Clear
9:55 PM 66.4 °F 60.1 °F 80% 30.06 in 10.0 mi Calm Calm - N/A   Clear
10:55 PM 66.6 °F 60.3 °F 80% 30.06 in 10.0 mi Calm Calm - N/A   Clear
11:55 PM 66.2 °F 60.4 °F 82% 30.05 in 10.0 mi Calm Calm - N/A   Clear